Tracking 25710 objects as of 6-Jul-2022
HD Live streaming from Space Station
objects crossing your sky now

FENGYUN 1C DEB

Track FENGYUN 1C DEB now!
10-day predictions


NORAD ID: 31994
Int'l Code: 1999-025CPX
Perigee: 799.0 km
Apogee: 1,038.0 km
Inclination: 98.6 °
Period: 103.2 minutes
Semi major axis: 7289 km
RCS: 0.0108 m2 (small)
Launch date: May 10, 1999
Source: People's Republic of China (PRC)
Launch site: Taiyaun Space Center, China (TSC)

Note: This is SATELLITE DEBRIS
aabbcc
Your satellite tracking list
Your tracking list is empty




NASA's NSSDC Master Catalog

Two Line Element Set (TLE):
1 31994U 99025CPX 22186.46510746  .00000153  00000-0  12830-3 0  9999
2 31994  98.6480 251.7895 0163889  36.2664 324.9477 13.94943529392775
Source of the keplerian elements: AFSPC